Location: Newark
(51.2625°N, 13.3939°E)
Time: 17:55:57
(UTC+00:00)

Explorer 7 - Pass Details

Date: 18 November 2019
Orbit: 485 x 680 km, 50.3° (Epoch: 14 December)

Event Time Altitude Azimuth Distance (km) Brightness Sun altitude
Rises 04:01:39 0° 281° (W) 2,789 - -22.5°
Reaches altitude 10° 04:04:01 10° 276° (W) 1,854 - -22.2°
Exits shadow 04:08:03 53° 204° (SSW) 663 7.0 -21.5°
Maximum altitude 04:08:07 53° 200° (SSW) 662 7.0 -21.5°
Drops below altitude 10° 04:11:58 10° 123° (ESE) 1,742 10.2 -20.9°
Sets 04:14:08 0° 118° (ESE) 2,602 11.4 -20.6°
